QPF
0.00 0.00 0.00 0.00 0.00 0.00 0.00 0.00 0.00 0.00 0.00 0.00 0.00 0.00 0.00 0.00 0.00 0.00 0.00 0.00 0.00 0.01 0.01 0.01 0.01 0.01 0.02 0.02 0.01 0.01 0.01 0.01 0.01 0.01 0.01 0.01 0.02 0.01 0.01 0.01 0.02 0.03 0.03 0.03
0.00 0.00 0.00 0.00 0.00 0.00 0.00 0.00 0.00 0.00 0.00 0.00 0.00 0.00 0.00 0.00 0.00 0.00 0.00 0.00 0.01 0.02 0.02 0.03 0.03 0.03 0.02 0.01 0.01 0.01 0.01 0.01 0.00 0.00 0.00 0.01 0.01 0.01 0.01 0.01 0.01 0.02 0.01 0.01
0.00 0.00 0.00 0.00 0.00 0.00 0.00 0.00 0.00 0.00 0.00 0.00 0.00 0.00 0.00 0.00 0.01 0.01 0.01 0.00 0.01 0.01 0.02 0.02 0.02 0.02 0.01 0.00 0.01 0.01 0.01 0.00 0.00 0.00 0.01 0.01 0.01 0.01 0.01 0.01 0.01 0.01 0.01 0.00
0.00 0.00 0.00 0.00 0.00 0.00 0.00 0.00 0.00 0.00 0.00 0.00 0.00 0.00 0.01 0.02 0.02 0.01 0.01 0.00 0.00 0.00 0.00 0.00 0.00 0.00 0.01 0.01 0.01 0.01 0.01 0.00 0.01 0.01 0.02 0.03 0.03 0.02 0.01 0.01 0.01 0.01 0.01 0.01
0.00 0.00 0.00 0.00 0.00 0.00 0.00 0.00 0.00 0.00 0.00 0.00 0.00 0.01 0.02 0.02 0.01 0.00 0.00 0.00 0.00 0.00 0.00 0.00 0.00 0.01 0.01 0.01 0.02 0.02 0.01 0.01 0.01 0.03 0.04 0.05 0.05 0.04 0.03 0.03 0.03 0.02 0.01 0.01
0.00 0.00 0.00 0.00 0.00 0.00 0.00 0.01 0.00 0.01 0.01 0.01 0.01 0.02 0.01 0.01 0.01 0.00 0.00 0.00 0.00 0.00 0.01 0.01 0.01 0.01 0.02 0.02 0.02 0.02 0.02 0.01 0.02 0.04 0.05 0.05 0.05 0.04 0.04 0.04 0.03 0.03 0.02 0.02
0.00 0.00 0.00 0.00 0.00 0.00 0.01 0.01 0.01 0.01 0.01 0.01 0.01 0.01 0.01 0.01 0.00 0.00 0.00 0.00 0.01 0.01 0.01 0.01 0.01 0.01 0.01 0.02 0.02 0.02 0.02 0.01 0.02 0.02 0.02 0.02 0.02 0.03 0.03 0.03 0.03 0.03 0.02 0.02
0.00 0.00 0.00 0.00 0.00 0.01 0.01 0.01 0.01 0.01 0.01 0.00 0.00 0.01 0.00 0.00 0.00 0.01 0.01 0.01 0.01 0.01 0.01 0.01 0.01 0.01 0.01 0.01 0.02 0.02 0.01 0.01 0.01 0.01 0.01 0.01 0.01 0.02 0.03 0.03 0.02 0.02 0.02 0.02
0.01 0.00 0.00 0.00 0.00 0.00 0.00 0.01 0.01 0.01 0.01 0.00 0.00 0.00 0.00 0.01 0.01 0.01 0.01 0.01 0.01 0.01 0.01 0.01 0.01 0.01 0.01 0.02 0.02 0.01 0.01 0.01 0.01 0.02 0.02 0.02 0.02 0.02 0.03 0.02 0.02 0.02 0.02 0.02
0.01 0.00 0.00 0.00 0.00 0.00 0.00 0.01 0.01 0.01 0.01 0.01 0.01 0.01 0.02 0.03 0.02 0.03 0.03 0.02 0.02 0.01 0.01 0.01 0.01 0.01 0.01 0.02 0.01 0.01 0.01 0.01 0.02 0.02 0.02 0.02 0.02 0.02 0.02 0.02 0.02 0.02 0.01 0.01
0.00 0.00 0.00 0.00 0.00 0.01 0.00 0.00 0.00 0.01 0.02 0.01 0.01 0.02 0.02 0.03 0.02 0.02 0.03 0.02 0.02 0.02 0.02 0.02 0.01 0.01 0.01 0.01 0.01 0.01 0.01 0.02 0.02 0.03 0.02 0.02 0.02 0.02 0.02 0.02 0.02 0.02 0.02 0.03
0.00 0.00 0.00 0.00 0.00 0.00 0.01 0.00 0.00 0.02 0.03 0.02 0.01 0.02 0.02 0.03 0.03 0.02 0.02 0.03 0.03 0.02 0.02 0.01 0.01 0.01 0.01 0.01 0.01 0.01 0.01 0.02 0.02 0.02 0.02 0.03 0.03 0.04 0.04 0.04 0.04 0.05 0.05 0.05
0.00 0.00 0.00 0.00 0.00 0.00 0.01 0.00 0.01 0.02 0.03 0.03 0.03 0.02 0.03 0.03 0.04 0.04 0.02 0.03 0.02 0.03 0.02 0.02 0.02 0.02 0.02 0.01 0.01 0.01 0.01 0.02 0.02 0.01 0.02 0.03 0.03 0.05 0.06 0.06 0.07 0.07 0.06 0.05
0.00 0.00 0.00 0.00 0.00 0.00 0.00 0.01 0.02 0.04 0.04 0.05 0.04 0.02 0.02 0.03 0.02 0.03 0.02 0.02 0.03 0.03 0.02 0.02 0.02 0.02 0.02 0.02 0.01 0.01 0.02 0.04 0.04 0.04 0.04 0.04 0.04 0.05 0.05 0.05 0.06 0.06 0.05 0.05
0.00 0.00 0.00 0.00 0.00 0.01 0.01 0.01 0.02 0.03 0.04 0.03 0.02 0.02 0.02 0.03 0.04 0.03 0.03 0.02 0.03 0.04 0.03 0.02 0.02 0.03 0.02 0.02 0.02 0.04 0.05 0.07 0.08 0.07 0.05 0.04 0.03 0.03 0.03 0.02 0.03 0.04 0.04 0.03
0.01 0.01 0.01 0.01 0.01 0.01 0.01 0.01 0.01 0.03 0.03 0.03 0.03 0.04 0.06 0.05 0.06 0.05 0.04 0.04 0.05 0.05 0.04 0.03 0.03 0.03 0.02 0.02 0.04 0.05 0.05 0.04 0.04 0.03 0.03 0.03 0.03 0.03 0.03 0.02 0.02 0.03 0.03 0.03
0.02 0.01 0.01 0.01 0.01 0.01 0.01 0.01 0.01 0.03 0.04 0.04 0.04 0.05 0.08 0.07 0.06 0.06 0.05 0.04 0.05 0.05 0.04 0.03 0.03 0.03 0.03 0.02 0.02 0.02 0.02 0.02 0.02 0.03 0.03 0.03 0.04 0.04 0.04 0.03 0.03 0.03 0.03 0.04
0.03 0.02 0.02 0.02 0.02 0.01 0.01 0.01 0.02 0.03 0.02 0.03 0.04 0.04 0.05 0.05 0.06 0.08 0.06 0.04 0.05 0.05 0.04 0.03 0.03 0.03 0.02 0.02 0.02 0.02 0.02 0.02 0.02 0.03 0.03 0.03 0.03 0.03 0.03 0.03 0.03 0.03 0.03 0.03
0.02 0.02 0.02 0.02 0.01 0.01 0.01 0.02 0.02 0.01 0.01 0.03 0.04 0.03 0.04 0.06 0.06 0.08 0.07 0.05 0.06 0.07 0.06 0.05 0.05 0.04 0.02 0.02 0.02 0.02 0.02 0.02 0.02 0.02 0.02 0.02 0.02 0.02 0.02 0.02 0.03 0.04 0.03 0.02
0.02 0.01 0.01 0.01 0.01 0.01 0.03 0.02 0.01 0.02 0.01 0.02 0.03 0.04 0.04 0.06 0.06 0.07 0.09 0.07 0.04 0.05 0.04 0.04 0.04 0.02 0.01 0.02 0.02 0.02 0.02 0.02 0.02 0.02 0.02 0.01 0.02 0.02 0.02 0.02 0.02 0.02 0.02 0.02
0.02 0.02 0.02 0.02 0.02 0.02 0.02 0.02 0.02 0.02 0.02 0.03 0.03 0.03 0.04 0.06 0.08 0.08 0.10 0.11 0.08 0.05 0.04 0.03 0.02 0.01 0.01 0.02 0.02 0.02 0.02 0.02 0.02 0.02 0.02 0.02 0.02 0.02 0.02 0.01 0.02 0.02 0.02 0.02
0.02 0.02 0.02 0.02 0.01 0.01 0.01 0.02 0.02 0.02 0.02 0.02 0.03 0.04 0.04 0.06 0.07 0.08 0.09 0.10 0.10 0.08 0.04 0.03 0.02 0.01 0.02 0.02 0.01 0.01 0.01 0.02 0.02 0.02 0.01 0.01 0.01 0.01 0.01 0.02 0.02 0.02 0.01 0.01
0.03 0.02 0.02 0.02 0.02 0.01 0.01 0.01 0.02 0.02 0.02 0.02 0.03 0.04 0.04 0.05 0.05 0.06 0.06 0.08 0.07 0.06 0.04 0.02 0.02 0.02 0.02 0.01 0.01 0.01 0.01 0.01 0.02 0.02 0.02 0.02 0.03 0.02 0.02 0.03 0.03 0.02 0.01 0.01
0.04 0.03 0.03 0.04 0.04 0.02 0.02 0.02 0.02 0.03 0.03 0.02 0.03 0.05 0.04 0.04 0.03 0.04 0.04 0.05 0.06 0.05 0.04 0.03 0.03 0.02 0.02 0.01 0.01 0.01 0.02 0.02 0.02 0.02 0.03 0.04 0.05 0.05 0.05 0.04 0.03 0.03 0.02 0.01
0.04 0.04 0.05 0.06 0.04 0.03 0.02 0.02 0.03 0.04 0.04 0.04 0.04 0.06 0.05 0.03 0.03 0.03 0.03 0.03 0.03 0.03 0.03 0.03 0.02 0.02 0.02 0.02 0.02 0.02 0.03 0.03 0.03 0.03 0.04 0.04 0.05 0.05 0.05 0.04 0.03 0.03 0.03 0.02
0.04 0.06 0.07 0.06 0.04 0.02 0.02 0.02 0.03 0.05 0.05 0.05 0.05 0.05 0.06 0.04 0.03 0.03 0.03 0.03 0.03 0.02 0.02 0.02 0.01 0.01 0.01 0.01 0.01 0.01 0.01 0.01 0.01 0.02 0.02 0.02 0.02 0.02 0.02 0.02 0.02 0.02 0.02 0.02
0.04 0.06 0.06 0.04 0.03 0.03 0.04 0.04 0.03 0.04 0.04 0.04 0.04 0.04 0.04 0.03 0.02 0.02 0.02 0.02 0.02 0.02 0.02 0.02 0.01 0.01 0.01 0.01 0.01 0.01 0.01 0.01 0.01 0.02 0.02 0.01 0.02 0.02 0.02 0.03 0.03 0.03 0.03 0.04
MSLP
1008.70 1007.99 1007.40 1006.95 1006.64 1006.41 1006.21 1005.97 1005.64 1005.20 1004.66 1004.07 1003.51 1003.07 1002.83 1002.84 1003.12 1003.65 1004.38 1005.22 1006.10 1006.92 1007.63 1008.22 1008.67 1009.02 1009.32 1009.62 1009.96 1010.36 1010.83 1011.35 1011.90 1012.45 1012.96 1013.42 1013.81 1014.15 1014.44 1014.71 1014.96 1015.21 1015.45 1015.68
1008.93 1008.05 1007.26 1006.58 1006.02 1005.55 1005.13 1004.72 1004.27 1003.78 1003.25 1002.72 1002.25 1001.92 1001.80 1001.91 1002.28 1002.89 1003.69 1004.61 1005.58 1006.51 1007.37 1008.10 1008.73 1009.25 1009.71 1010.14 1010.58 1011.04 1011.53 1012.04 1012.56 1013.06 1013.51 1013.92 1014.28 1014.60 1014.89 1015.17 1015.44 1015.72 1015.99 1016.24
1008.83 1007.86 1006.93 1006.09 1005.35 1004.70 1004.11 1003.55 1003.01 1002.46 1001.92 1001.42 1001.02 1000.78 1000.73 1000.92 1001.36 1002.03 1002.89 1003.87 1004.92 1005.96 1006.93 1007.82 1008.61 1009.30 1009.92 1010.49 1011.03 1011.57 1012.10 1012.61 1013.11 1013.57 1013.98 1014.35 1014.68 1014.98 1015.27 1015.55 1015.85 1016.14 1016.44 1016.71
1008.42 1007.41 1006.43 1005.51 1004.67 1003.91 1003.21 1002.56 1001.94 1001.35 1000.80 1000.32 999.95 999.75 999.75 999.99 1000.48 1001.18 1002.08 1003.11 1004.22 1005.33 1006.42 1007.43 1008.35 1009.19 1009.95 1010.64 1011.29 1011.90 1012.47 1013.01 1013.50 1013.95 1014.34 1014.69 1015.00 1015.29 1015.58 1015.87 1016.17 1016.49 1016.80 1017.09
1007.80 1006.81 1005.84 1004.92 1004.07 1003.27 1002.53 1001.83 1001.17 1000.54 999.97 999.48 999.13 998.94 998.97 999.22 999.72 1000.44 1001.36 1002.42 1003.56 1004.74 1005.90 1007.00 1008.02 1008.97 1009.84 1010.63 1011.36 1012.04 1012.66 1013.22 1013.73 1014.18 1014.58 1014.93 1015.24 1015.54 1015.83 1016.13 1016.45 1016.78 1017.11 1017.42
1007.15 1006.23 1005.32 1004.46 1003.65 1002.88 1002.14 1001.43 1000.75 1000.09 999.49 998.98 998.60 998.40 998.41 998.66 999.15 999.86 1000.78 1001.85 1003.02 1004.22 1005.43 1006.59 1007.68 1008.70 1009.64 1010.50 1011.29 1012.01 1012.67 1013.27 1013.81 1014.29 1014.70 1015.07 1015.41 1015.73 1016.05 1016.37 1016.71 1017.05 1017.39 1017.72
1006.66 1005.82 1005.01 1004.25 1003.52 1002.81 1002.11 1001.41 1000.71 1000.03 999.38 998.81 998.38 998.12 998.09 998.29 998.75 999.44 1000.35 1001.41 1002.58 1003.81 1005.04 1006.23 1007.36 1008.42 1009.39 1010.29 1011.11 1011.87 1012.56 1013.19 1013.76 1014.27 1014.73 1015.14 1015.52 1015.88 1016.24 1016.59 1016.95 1017.32 1017.68 1018.02
1006.43 1005.68 1004.99 1004.34 1003.72 1003.10 1002.45 1001.76 1001.04 1000.31 999.59 998.94 998.41 998.07 997.95 998.08 998.49 999.14 1000.02 1001.07 1002.24 1003.48 1004.72 1005.93 1007.07 1008.15 1009.13 1010.04 1010.87 1011.64 1012.35 1013.01 1013.61 1014.17 1014.68 1015.15 1015.59 1016.00 1016.40 1016.80 1017.19 1017.58 1017.96 1018.32
1006.47 1005.82 1005.25 1004.73 1004.22 1003.68 1003.08 1002.41 1001.66 1000.86 1000.04 999.27 998.63 998.16 997.93 997.97 998.30 998.90 999.74 1000.78 1001.95 1003.19 1004.45 1005.67 1006.82 1007.89 1008.88 1009.78 1010.61 1011.38 1012.09 1012.77 1013.40 1014.00 1014.56 1015.10 1015.60 1016.08 1016.54 1016.99 1017.42 1017.85 1018.25 1018.62
1006.65 1006.11 1005.67 1005.28 1004.89 1004.44 1003.89 1003.22 1002.43 1001.55 1000.62 999.72 998.93 998.32 997.96 997.89 998.13 998.67 999.47 1000.50 1001.67 1002.93 1004.19 1005.43 1006.59 1007.66 1008.64 1009.52 1010.34 1011.09 1011.81 1012.49 1013.14 1013.78 1014.39 1014.98 1015.56 1016.10 1016.63 1017.14 1017.62 1018.08 1018.50 1018.88
1006.78 1006.36 1006.06 1005.81 1005.55 1005.19 1004.70 1004.03 1003.21 1002.24 1001.20 1000.16 999.22 998.46 997.97 997.78 997.93 998.41 999.19 1000.20 1001.38 1002.65 1003.94 1005.19 1006.37 1007.44 1008.41 1009.28 1010.08 1010.81 1011.51 1012.19 1012.85 1013.52 1014.17 1014.82 1015.45 1016.07 1016.66 1017.22 1017.75 1018.24 1018.69 1019.08
1006.61 1006.34 1006.20 1006.11 1005.98 1005.73 1005.30 1004.66 1003.82 1002.79 1001.66 1000.50 999.43 998.55 997.93 997.64 997.71 998.14 998.88 999.89 1001.08 1002.37 1003.68 1004.96 1006.15 1007.23 1008.20 1009.05 1009.83 1010.54 1011.22 1011.88 1012.55 1013.23 1013.91 1014.60 1015.28 1015.95 1016.60 1017.22 1017.79 1018.32 1018.78 1019.18
1005.98 1005.89 1005.93 1006.01 1006.03 1005.90 1005.56 1004.97 1004.14 1003.09 1001.91 1000.68 999.52 998.54 997.84 997.47 997.48 997.86 998.58 999.58 1000.78 1002.09 1003.42 1004.72 1005.93 1007.02 1007.98 1008.83 1009.58 1010.28 1010.93 1011.58 1012.24 1012.92 1013.62 1014.33 1015.05 1015.76 1016.45 1017.11 1017.72 1018.26 1018.74 1019.13
1004.86 1004.96 1005.18 1005.43 1005.61 1005.62 1005.39 1004.88 1004.10 1003.08 1001.89 1000.65 999.46 998.44 997.70 997.29 997.26 997.61 998.31 999.30 1000.50 1001.82 1003.17 1004.48 1005.70 1006.79 1007.76 1008.60 1009.34 1010.01 1010.65 1011.28 1011.93 1012.60 1013.30 1014.03 1014.77 1015.50 1016.22 1016.90 1017.52 1018.08 1018.55 1018.93
1003.32 1003.60 1004.00 1004.42 1004.75 1004.90 1004.79 1004.38 1003.69 1002.74 1001.61 1000.41 999.26 998.26 997.52 997.12 997.08 997.42 998.11 999.08 1000.27 1001.58 1002.92 1004.23 1005.45 1006.55 1007.51 1008.35 1009.08 1009.75 1010.38 1011.00 1011.63 1012.29 1012.99 1013.71 1014.45 1015.18 1015.90 1016.58 1017.20 1017.75 1018.21 1018.57
1001.55 1001.98 1002.53 1003.09 1003.55 1003.82 1003.82 1003.53 1002.95 1002.11 1001.09 999.99 998.93 998.01 997.33 996.96 996.95 997.30 997.97 998.93 1000.09 1001.37 1002.69 1003.97 1005.18 1006.27 1007.23 1008.07 1008.81 1009.47 1010.10 1010.72 1011.34 1012.00 1012.68 1013.39 1014.11 1014.83 1015.52 1016.18 1016.77 1017.29 1017.73 1018.06
999.77 1000.32 1000.96 1001.61 1002.15 1002.51 1002.61 1002.42 1001.96 1001.25 1000.38 999.42 998.50 997.70 997.13 996.84 996.88 997.24 997.91 998.84 999.96 1001.19 1002.47 1003.71 1004.89 1005.96 1006.92 1007.76 1008.51 1009.18 1009.82 1010.45 1011.07 1011.72 1012.39 1013.07 1013.77 1014.45 1015.10 1015.71 1016.26 1016.74 1017.13 1017.44
998.20 998.79 999.48 1000.15 1000.72 1001.12 1001.27 1001.17 1000.82 1000.26 999.54 998.76 998.00 997.37 996.93 996.75 996.85 997.25 997.92 998.81 999.88 1001.05 1002.26 1003.45 1004.59 1005.63 1006.58 1007.42 1008.19 1008.89 1009.55 1010.19 1010.83 1011.47 1012.13 1012.78 1013.44 1014.07 1014.67 1015.22 1015.70 1016.12 1016.47 1016.73
996.95 997.54 998.20 998.84 999.38 999.76 999.94 999.89 999.63 999.20 998.65 998.05 997.48 997.03 996.75 996.69 996.88 997.32 997.98 998.84 999.85 1000.95 1002.08 1003.21 1004.29 1005.29 1006.22 1007.08 1007.86 1008.59 1009.28 1009.94 1010.60 1011.25 1011.89 1012.52 1013.12 1013.70 1014.23 1014.71 1015.13 1015.49 1015.78 1016.01
996.04 996.59 997.17 997.73 998.20 998.52 998.67 998.65 998.46 998.15 997.75 997.34 996.97 996.71 996.60 996.67 996.95 997.44 998.11 998.94 999.88 1000.90 1001.95 1003.00 1004.01 1004.98 1005.89 1006.74 1007.54 1008.29 1009.01 1009.71 1010.38 1011.03 1011.66 1012.26 1012.83 1013.35 1013.81 1014.23 1014.58 1014.88 1015.12 1015.32
995.40 995.87 996.36 996.81 997.17 997.41 997.52 997.50 997.36 997.15 996.91 996.67 996.50 996.42 996.48 996.70 997.08 997.61 998.29 999.09 999.98 1000.92 1001.88 1002.85 1003.80 1004.71 1005.59 1006.43 1007.24 1008.01 1008.75 1009.47 1010.15 1010.81 1011.43 1012.00 1012.53 1013.00 1013.42 1013.77 1014.07 1014.32 1014.53 1014.71
994.90 995.30 995.68 996.01 996.27 996.42 996.48 996.46 996.38 996.27 996.16 996.09 996.09 996.20 996.43 996.78 997.25 997.84 998.53 999.31 1000.14 1001.00 1001.89 1002.77 1003.65 1004.51 1005.35 1006.16 1006.96 1007.74 1008.49 1009.22 1009.91 1010.56 1011.17 1011.72 1012.22 1012.66 1013.03 1013.35 1013.61 1013.84 1014.03 1014.21
994.43 994.76 995.06 995.30 995.46 995.55 995.57 995.56 995.53 995.51 995.53 995.62 995.79 996.07 996.44 996.91 997.48 998.12 998.82 999.57 1000.35 1001.15 1001.95 1002.75 1003.56 1004.35 1005.14 1005.93 1006.70 1007.46 1008.21 1008.93 1009.62 1010.26 1010.86 1011.40 1011.87 1012.29 1012.65 1012.95 1013.21 1013.43 1013.63 1013.83
993.93 994.22 994.45 994.62 994.73 994.78 994.79 994.80 994.83 994.91 995.05 995.28 995.61 996.02 996.53 997.10 997.74 998.42 999.13 999.86 1000.59 1001.32 1002.05 1002.78 1003.50 1004.23 1004.97 1005.70 1006.44 1007.17 1007.90 1008.60 1009.27 1009.90 1010.48 1011.01 1011.48 1011.89 1012.25 1012.56 1012.84 1013.09 1013.33 1013.57
993.39 993.66 993.86 994.00 994.08 994.12 994.16 994.21 994.31 994.48 994.74 995.09 995.54 996.07 996.67 997.33 998.02 998.73 999.43 1000.13 1000.82 1001.49 1002.15 1002.80 1003.46 1004.12 1004.79 1005.47 1006.16 1006.85 1007.54 1008.21 1008.85 1009.46 1010.03 1010.55 1011.02 1011.45 1011.83 1012.17 1012.49 1012.79 1013.08 1013.38
992.87 993.13 993.33 993.46 993.55 993.61 993.68 993.80 993.97 994.23 994.58 995.04 995.58 996.19 996.86 997.57 998.29 999.00 999.69 1000.35 1000.99 1001.60 1002.20 1002.79 1003.38 1003.97 1004.59 1005.21 1005.85 1006.50 1007.14 1007.78 1008.39 1008.98 1009.53 1010.05 1010.53 1010.98 1011.39 1011.78 1012.16 1012.52 1012.88 1013.25
992.45 992.72 992.91 993.06 993.17 993.27 993.39 993.57 993.81 994.15 994.58 995.11 995.71 996.37 997.08 997.80 998.51 999.20 999.86 1000.49 1001.08 1001.64 1002.18 1002.71 1003.24 1003.79 1004.35 1004.93 1005.52 1006.13 1006.73 1007.33 1007.92 1008.48 1009.02 1009.54 1010.03 1010.51 1010.96 1011.40 1011.84 1012.27 1012.70 1013.13
Thickness
5785 5790 5791 5788 5788 5790 5788 5791 5788 5793 5794 5799 5804 5806 5806 5808 5809 5808 5808 5807 5807 5806 5803 5801 5798 5796 5794 5791 5789 5787 5782 5779 5776 5774 5771 5768 5765 5763 5761 5759 5758 5755 5752 5750
5771 5780 5782 5780 5785 5787 5786 5788 5789 5790 5791 5804 5806 5805 5801 5802 5802 5800 5801 5801 5802 5802 5800 5797 5794 5792 5790 5787 5785 5782 5778 5775 5773 5770 5767 5764 5762 5760 5758 5755 5753 5751 5748 5746
5762 5771 5769 5766 5781 5782 5783 5787 5787 5782 5790 5798 5795 5794 5795 5797 5797 5796 5797 5798 5798 5797 5796 5794 5792 5788 5785 5783 5781 5778 5774 5772 5769 5767 5764 5761 5759 5756 5753 5751 5748 5746 5744 5742
5756 5751 5738 5772 5790 5786 5781 5782 5787 5786 5789 5790 5790 5792 5794 5795 5794 5793 5794 5794 5794 5794 5792 5792 5790 5787 5783 5780 5777 5773 5770 5768 5766 5763 5760 5758 5754 5751 5748 5746 5743 5742 5740 5738
5746 5744 5751 5767 5775 5777 5771 5770 5781 5780 5782 5786 5788 5787 5788 5791 5791 5791 5791 5791 5791 5791 5790 5788 5785 5782 5778 5775 5772 5769 5766 5763 5762 5759 5756 5753 5749 5747 5744 5740 5738 5737 5735 5732
5736 5731 5735 5759 5771 5777 5769 5757 5774 5775 5774 5776 5776 5771 5777 5784 5784 5785 5785 5785 5784 5785 5783 5780 5778 5776 5771 5768 5765 5763 5762 5760 5757 5754 5751 5748 5745 5742 5739 5736 5733 5731 5729 5727
5728 5728 5744 5755 5763 5763 5743 5749 5764 5768 5768 5768 5765 5767 5773 5776 5775 5775 5776 5777 5777 5776 5774 5772 5771 5769 5764 5762 5759 5759 5758 5755 5752 5749 5746 5743 5740 5736 5732 5729 5726 5724 5721 5720
5722 5719 5730 5746 5750 5744 5744 5752 5755 5757 5760 5760 5760 5763 5765 5765 5765 5766 5766 5767 5768 5767 5765 5765 5764 5762 5759 5756 5756 5754 5751 5749 5746 5743 5741 5739 5733 5729 5726 5722 5719 5717 5714 5712
5724 5725 5731 5737 5738 5740 5743 5742 5744 5748 5751 5751 5751 5753 5756 5756 5757 5757 5757 5758 5759 5758 5757 5756 5756 5755 5752 5750 5749 5747 5744 5741 5738 5736 5733 5730 5726 5723 5719 5716 5714 5713 5710 5707
5712 5720 5724 5727 5729 5731 5733 5734 5737 5740 5742 5744 5744 5746 5747 5747 5748 5748 5748 5749 5751 5750 5748 5748 5749 5747 5745 5743 5741 5738 5735 5733 5730 5728 5725 5723 5720 5717 5714 5711 5707 5704 5701 5699
5700 5708 5711 5715 5717 5720 5723 5726 5729 5731 5734 5735 5736 5737 5738 5738 5738 5738 5739 5741 5742 5740 5740 5740 5740 5739 5738 5736 5733 5730 5728 5726 5723 5722 5720 5714 5711 5707 5705 5701 5698 5693 5692 5690
5695 5701 5700 5704 5709 5712 5712 5714 5717 5719 5721 5725 5728 5728 5729 5730 5730 5730 5730 5732 5732 5732 5732 5732 5732 5731 5730 5729 5725 5722 5720 5718 5717 5715 5711 5708 5703 5698 5691 5687 5683 5679 5677 5676
5688 5693 5695 5697 5701 5704 5704 5706 5709 5710 5712 5714 5717 5719 5720 5720 5722 5722 5721 5723 5723 5723 5723 5723 5723 5722 5722 5721 5717 5714 5711 5710 5709 5707 5703 5700 5696 5691 5685 5678 5672 5669 5666 5664
5680 5681 5682 5687 5690 5694 5696 5698 5700 5702 5705 5707 5708 5709 5711 5710 5711 5711 5712 5714 5715 5714 5715 5715 5714 5713 5714 5712 5709 5706 5704 5701 5699 5696 5694 5691 5688 5684 5681 5677 5671 5666 5659 5654
5671 5674 5677 5681 5684 5686 5688 5690 5690 5692 5695 5697 5699 5700 5701 5700 5700 5701 5703 5706 5706 5705 5706 5706 5705 5704 5705 5703 5700 5698 5696 5694 5691 5689 5686 5683 5680 5677 5674 5670 5666 5661 5657 5650
5663 5666 5670 5671 5673 5676 5678 5680 5681 5682 5685 5687 5689 5690 5692 5693 5692 5693 5695 5696 5695 5695 5695 5696 5696 5695 5695 5694 5692 5690 5687 5683 5681 5680 5679 5676 5673 5670 5667 5663 5660 5656 5652 5648
5653 5655 5659 5661 5664 5667 5669 5671 5673 5675 5677 5678 5680 5682 5683 5684 5684 5684 5685 5686 5686 5686 5686 5687 5687 5686 5684 5684 5683 5682 5680 5677 5671 5671 5670 5668 5665 5662 5659 5656 5652 5649 5645 5641
5650 5652 5655 5656 5658 5659 5661 5663 5665 5666 5668 5670 5673 5674 5674 5674 5674 5675 5675 5676 5676 5676 5677 5678 5677 5675 5674 5674 5674 5674 5672 5669 5667 5665 5662 5658 5656 5654 5651 5648 5645 5641 5638 5633
5644 5646 5649 5651 5652 5653 5654 5656 5657 5659 5661 5662 5663 5664 5665 5666 5666 5666 5666 5666 5666 5666 5667 5668 5665 5666 5666 5665 5664 5664 5664 5662 5659 5656 5654 5648 5647 5646 5643 5640 5637 5634 5631 5627
5637 5640 5642 5644 5645 5646 5647 5648 5650 5650 5652 5653 5655 5655 5656 5657 5658 5658 5657 5657 5658 5659 5658 5657 5657 5658 5657 5657 5654 5656 5655 5653 5651 5648 5644 5642 5640 5638 5636 5634 5631 5627 5623 5620
5629 5632 5634 5636 5636 5638 5639 5640 5641 5642 5643 5645 5646 5647 5648 5648 5650 5650 5650 5651 5650 5650 5649 5646 5648 5649 5650 5648 5646 5649 5647 5645 5643 5640 5637 5634 5632 5630 5628 5626 5623 5619 5615 5612
5621 5623 5626 5627 5627 5628 5631 5633 5634 5634 5635 5637 5639 5640 5640 5640 5641 5642 5642 5642 5642 5639 5640 5642 5642 5640 5640 5638 5642 5642 5640 5637 5634 5631 5628 5626 5625 5622 5620 5617 5615 5611 5608 5604
5613 5614 5616 5618 5619 5620 5623 5625 5626 5627 5628 5629 5631 5632 5633 5633 5635 5636 5635 5635 5635 5631 5633 5634 5631 5628 5627 5632 5633 5632 5631 5628 5625 5623 5621 5619 5617 5614 5611 5608 5606 5603 5600 5597
5605 5607 5608 5611 5612 5613 5614 5617 5619 5620 5622 5623 5624 5625 5625 5626 5628 5629 5628 5624 5623 5622 5625 5622 5620 5619 5619 5625 5624 5623 5621 5619 5616 5614 5613 5610 5608 5606 5603 5600 5597 5595 5592 5588
5599 5600 5602 5603 5605 5608 5610 5612 5613 5614 5616 5617 5617 5617 5618 5619 5619 5620 5619 5618 5615 5615 5617 5615 5612 5612 5615 5617 5616 5614 5613 5610 5609 5606 5604 5601 5599 5596 5593 5590 5587 5584 5581 5578
5594 5596 5598 5598 5601 5603 5606 5608 5609 5610 5610 5610 5609 5610 5611 5611 5611 5611 5610 5611 5610 5608 5610 5610 5609 5607 5609 5609 5607 5606 5604 5602 5600 5597 5595 5592 5590 5587 5584 5581 5577 5575 5572 5569
5590 5592 5593 5596 5598 5600 5602 5603 5604 5604 5604 5604 5603 5604 5604 5604 5605 5605 5604 5605 5604 5604 5604 5604 5603 5603 5602 5601 5600 5598 5596 5594 5592 5589 5587 5584 5581 5578 5575 5572 5569 5567 5563 5561